Regional Weather Roundup
Issued by NWS Green Bay, WI

Current Version | Previous Version | Text Only | Print | Product List | Glossary On
Versions: 1 2 3 4 5 6 7 8 9 10 11 12 13 14 15 16 17 18 19 20 21 22 23 24 25 26 27 28 29 30 31 32 33 34 35 36 37 38 39 40 41 42 43 44 45 46 47 48 49 50
000
ASUS43 KGRB 261211
RWRGRB

NORTH-CENTRAL AND NORTHEAST WISCONSIN REGIONAL WEATHER ROUNDUP
NATIONAL WEATHER SERVICE GREEN BAY WI
700 AM CDT WED JUN 26 2019

WIZ005-009-010>012-018-019-261300-
NORTH CENTRAL WISCONSIN

CITY           SKY/WX    TMP DP  RH WIND       PRES   REMARKS
IRONWOOD       LGT RAIN  63  55  75 SW10      29.94R
MANITOWISH WTR FAIR      59  59 100 W5        29.96R
ARBOR VITAE    FAIR      62  58  87 W7        29.97R
EAGLE RIVER    FAIR      60  57  91 W9        29.96R
LAND O LAKES   FAIR      62  56  83 W8        29.97R
RHINELANDER    FAIR      65  55  70 W8        29.98R
PHILLIPS       FAIR      61  58  88 W3        29.98S
ANTIGO         FAIR      60  55  83 W6        30.00R
TOMAHAWK       FAIR      62  55  80 W5        29.99S
MERRILL        FAIR      60  56  86 W10       29.99R
$$

WIZ013-073-261300-
NORTHEAST WISCONSIN

CITY           SKY/WX    TMP DP  RH WIND       PRES   REMARKS
IRON MOUNTAIN  FAIR      63  55  75 W7        29.91S
MARINETTE      FAIR      66  57  72 VRB5      29.94R
OCONTO         FAIR      64  57  77 W8        29.94R
$$

WIZ017-030-035>037-045-261300-
CENTRAL WISCONSIN

CITY           SKY/WX    TMP DP  RH WIND       PRES   REMARKS
MEDFORD        FAIR      60  55  82 W7        29.99S
WAUSAU         FAIR      63  55  75 NW8       29.97R
MOSINEE        SUNNY     61  57  88 W5        30.00R
MARSHFIELD     FAIR      62  55  77 W5        29.98S
WISC RAPIDS    FAIR      63  56  78 W5        29.99S
STEVENS POINT  FAIR      64  55  71 W3        29.99S
WAUPACA        FAIR      67  57  70 W5        29.98S
SHAWANO        FAIR      65  57  75 W5        29.97R
CLINTONVILLE   FAIR      65  55  71 W9        29.97S
WAUTOMA        FAIR      64  57  78 CALM      30.00R
$$

WIZ038-039-048-051-261300-
FOX VALLEY

CITY           SKY/WX    TMP DP  RH WIND       PRES   REMARKS
NWS GREEN BAY  FAIR      66  58  75 W8        29.97R
APPLETON       SUNNY     64  52  63 W7        29.97R
OSHKOSH        FAIR      66  56  70 SW5       29.98R
FOND DU LAC    FAIR      66  57  72 SW7       29.99S
$$

WIZ022-050-052-261300-
EAST CENTRAL WISCONSIN

CITY           SKY/WX    TMP DP  RH WIND       PRES   REMARKS
EPHRAIM        FAIR      64  56  77 W8        29.92S
WASHINGTON ISL PTSUNNY   62  58  86 SW7       29.91S
STURGEON BAY   FAIR      67  58  72 W7        29.95R
MANITOWOC      FAIR      67  57  70 SW6       29.98R
SHEBOYGAN      FAIR      67  58  72 W6        29.99R
$$

LMZ563-521-522-541>543-261300-
LAKESHORE

STATION/POSITION TIME  TEMP    WIND        PRES    VSBY  WAVE
                       AIR SEA DIR/SP/G                  HT/PER
                 (UTC) (F)     (DEG/KT/KT) (MB)    (MI)  (FT/S)
SHEBOYGAN LKSHOR 1200   68     250/ 10/ 11 1015.0R
KEWAUNEE LKSHORE 1124   65     290/  2/  7 1013.4
NORTHPORT PIER   1140   66     250/  3/  6 1012.9R
N MID LAKE BUOY  1150   53 42  250/ 10/ 12 1013.1R         2/ 5
S GREEN BAY BUOY 1130   65 64  260/ 12/ 14 1013.7S
SISTER BAY LKSHO 1124   64     270/  8/ 10   N/A
MENOMINEE LKSHOR 1124   65 68  250/  8/ 11 1013.1
$$




USA.gov is the U.S. government's official web portal to all federal, state and local government web resources and services.